STARLINK AY

Last updated on Sat Jul 15 2023 00:02:05 GMT+0000 (Coordinated Universal Time)

1 57264U 23094AY 23195.75001157 -.01068384 34079-3 -30278-2 0 9998 2 57264 42.9943 276.0396 0024337 199.8649 245.1820 15.91936387 1303

Satellite not in orbit